Regional Weather Roundup
Issued by NWS Midland/Odessa, TX

Skip options and go directly to product.
Home | Oldest Version | Next Version | Current Version | All | Text Only | Save Text | Print | Product List | Glossary On

Skip product version selection by date and time.   
448
ASUS44 KMAF 240801
RWRMAF
MIDLAND AREA WEATHER ROUNDUP
NATIONAL WEATHER SERVICE MIDLAND TX
300 AM CDT FRI JUN 24 2016

...IN SOUTHWEST TEXAS AND SOUTHEAST NEW MEXICO...

CITY           SKY/WX    TMP DP  RH WIND       PRES   REMARKS
ALPINE         CLEAR     71  51  48 S8        30.17S
ANDREWS        FAIR      75  57  53 S9        30.07S
ARTESIA        DRIZZLE   73  68  83 E6        30.10F
BIG SPRING     CLEAR     75  60  60 SE10      30.07S
CARLSBAD       CLOUDY    77  60  55 NE9       30.08F
DRYDEN           N/A     78  61  55 E15       30.00S
FORT STOCKTON  CLEAR     76  58  53 SE21G28   30.01F
GUAD PASS      CLOUDY    74  50  42 E24       30.20S
HOBBS          PTCLDY    77  55  47 W9        30.15R
MARFA          CLEAR    N/A N/A N/A CALM      30.17R
MIDLAND AIRPK  CLEAR     78  57  48 S13       30.06S
MIDLAND INTL   CLEAR     77  58  51 SE15      30.04F
ODESSA         CLEAR     78  57  48 SE15      30.05F
PECOS          CLEAR     78  57  47 E10       30.00R
PRESIDIO       FAIR      84  51  31 NE13      30.00R
SEMINOLE       CLEAR     74  57  53 S5        30.09R
SNYDER           N/A     73  63  72 S5        30.05S
WINK           CLEAR     77  58  51 SE12      30.01S
$$
...OTHER STATIONS IN TEXAS...

CITY           SKY/WX    TMP DP  RH WIND       PRES   REMARKS
ABILENE        CLEAR     76  65  68 S9        30.03S
AMARILLO       CLOUDY    78  58  49 VRB7G22   30.13R
AUSTIN         MOCLDY    74  72  93 S6        30.04S
BROWNSVILLE    PTCLDY    79  75  87 S5        29.97F
CORPUS CHRISTI PTCLDY    78  75  90 S3        29.99F
DALLAS FTW     CLEAR     82  69  64 S15       30.00S
DEL RIO        PTCLDY    80  70  71 E13G21    29.98S
EL PASO        CLOUDY    80  60  50 S5        30.07S
HOUSTON INT    PTCLDY    75  72  90 CALM      30.04S
LUBBOCK        PTCLDY    76  57  51 S9        30.08R
SAN ANGELO     CLEAR     76  64  66 S9        30.03S
SAN ANTONIO    MOCLDY    76  72  87 SE5       30.05S
WACO           CLEAR     78  70  76 S14       30.03S
WICHITA FALLS  NOT AVBL
$$
...OTHER LOCATIONS IN NEW MEXICO...

CITY           SKY/WX    TMP DP  RH WIND       PRES   REMARKS
ALAMAGORDO     CLOUDY    82  48  30 CALM      30.07S
ALBUQUERQUE    CLOUDY    74  52  46 NW9       30.17F
CANNON AFB     CLOUDY    76  54  46 S9        30.12S
CLOVIS         PTCLDY    73  52  46 S8        30.12S
HOLLOMAN AFB   MOCLDY    79  50  36 NW10      30.06R
ROSWELL        CLOUDY    79  52  38 S18       30.09F
RUIDOSO          N/A     63  52  67 CALM      30.36R
SANTA FE       CLOUDY    65  55  70 N12       30.24F
TRUTH OR CONSE PTCLDY    72  45  37 NW5       30.12F
TUCUMCARI      PTCLDY    74  62  66 NE8       30.10R
$$

USA.gov is the U.S. government's official web portal to all federal, state and local government web resources and services.